Radiation Dose at Monitoring Post of Fukushima Daini Nuclear Power Station
Date,Time,MP-1(microSv/h),MP-2(microSv/h),MP-3(microSv/h),MP-4(microSv/h),MP-5(microSv/h),MP-6(microSv/h),MP-7(microSv/h),Wind Direction,Wind Velocity(m/s),Rain
2021/03/28,00:00,0.173,0.155,0.253,0.239,0.237,0.136,0.084,south,6.0,No
2021/03/28,00:10,0.172,0.154,0.253,0.239,0.235,0.135,0.083,south,5.7,No
2021/03/28,00:20,0.173,0.154,0.252,0.238,0.236,0.135,0.083,south,6.1,No
2021/03/28,00:30,0.173,0.155,0.252,0.239,0.237,0.136,0.083,south,5.9,No
2021/03/28,00:40,0.173,0.154,0.252,0.241,0.236,0.135,0.083,south,5.4,No
2021/03/28,00:50,0.173,0.154,0.253,0.238,0.236,0.136,0.084,south,4.9,No
2021/03/28,01:00,0.174,0.154,0.252,0.239,0.237,0.135,0.084,south,5.4,No
2021/03/28,01:10,0.174,0.155,0.253,0.240,0.236,0.135,0.083,south,6.8,No
2021/03/28,01:20,0.172,0.154,0.252,0.239,0.237,0.136,0.083,south-southwest,8.7,No
2021/03/28,01:30,0.174,0.153,0.252,0.240,0.237,0.135,0.083,south-southwest,8.5,No
2021/03/28,01:40,0.173,0.155,0.252,0.240,0.236,0.135,0.084,south-southwest,7.5,No
2021/03/28,01:50,0.173,0.154,0.253,0.238,0.237,0.135,0.083,south-southwest,8.1,No
2021/03/28,02:00,0.172,0.154,0.252,0.238,0.235,0.135,0.082,south-southwest,7.9,No
2021/03/28,02:10,0.173,0.154,0.252,0.240,0.236,0.135,0.083,south-southwest,6.8,No
2021/03/28,02:20,0.173,0.155,0.252,0.237,0.236,0.135,0.083,south-southwest,7.1,No
2021/03/28,02:30,0.174,0.154,0.251,0.237,0.236,0.135,0.084,south-southwest,8.1,No
2021/03/28,02:40,0.172,0.155,0.251,0.240,0.236,0.135,0.083,south,7.0,No
2021/03/28,02:50,0.173,0.153,0.252,0.239,0.236,0.134,0.083,south-southwest,7.2,No
2021/03/28,03:00,0.172,0.153,0.251,0.238,0.237,0.135,0.083,south-southwest,7.6,No
2021/03/28,03:10,0.172,0.154,0.253,0.239,0.237,0.133,0.083,south-southwest,7.9,No
2021/03/28,03:20,0.173,0.153,0.251,0.239,0.236,0.135,0.083,south-southwest,8.1,No
2021/03/28,03:30,0.172,0.154,0.251,0.240,0.236,0.135,0.082,south,8.1,No
2021/03/28,03:40,0.172,0.155,0.251,0.237,0.235,0.136,0.083,south,7.0,No
2021/03/28,03:50,0.173,0.154,0.252,0.238,0.237,0.135,0.083,south,7.3,No
2021/03/28,04:00,0.172,0.154,0.252,0.239,0.235,0.135,0.083,south,7.8,No
2021/03/28,04:10,0.173,0.154,0.252,0.238,0.237,0.135,0.083,south-southwest,7.5,No
2021/03/28,04:20,0.173,0.154,0.251,0.240,0.236,0.134,0.083,south,7.6,No
2021/03/28,04:30,0.172,0.154,0.252,0.238,0.236,0.135,0.083,south-southwest,7.9,No
2021/03/28,04:40,0.172,0.154,0.252,0.238,0.237,0.134,0.083,south-southwest,7.3,No
2021/03/28,04:50,0.172,0.154,0.252,0.238,0.235,0.136,0.083,south,7.2,No
2021/03/28,05:00,0.173,0.154,0.251,0.238,0.237,0.134,0.084,south,7.9,No
2021/03/28,05:10,0.172,0.153,0.250,0.239,0.235,0.135,0.084,south,6.9,No
2021/03/28,05:20,0.173,0.154,0.250,0.238,0.236,0.135,0.082,south,7.9,No
2021/03/28,05:30,0.172,0.154,0.253,0.239,0.237,0.135,0.084,south-southwest,9.0,No
2021/03/28,05:40,0.173,0.152,0.251,0.239,0.237,0.136,0.083,south,8.4,No
2021/03/28,05:50,0.173,0.154,0.250,0.239,0.236,0.135,0.084,south-southwest,8.6,No
2021/03/28,06:00,0.171,0.153,0.252,0.239,0.235,0.136,0.083,south-southwest,10.1,No
2021/03/28,06:10,0.173,0.154,0.252,0.238,0.237,0.135,0.082,south,9.0,No
2021/03/28,06:20,0.171,0.154,0.252,0.238,0.236,0.136,0.083,south-southwest,8.6,No
2021/03/28,06:30,0.173,0.154,0.251,0.238,0.238,0.135,0.083,south-southwest,9.8,No
2021/03/28,06:40,0.173,0.155,0.251,0.238,0.236,0.136,0.083,south,8.5,No
2021/03/28,06:50,0.173,0.154,0.252,0.238,0.236,0.135,0.083,south,9.3,No
2021/03/28,07:00,0.172,0.153,0.252,0.237,0.236,0.134,0.084,south-southwest,9.2,No
2021/03/28,07:10,0.173,0.154,0.253,0.239,0.236,0.136,0.083,south-southwest,10.9,No
2021/03/28,07:20,0.173,0.154,0.250,0.238,0.237,0.134,0.083,south,9.6,No
2021/03/28,07:30,0.173,0.154,0.253,0.238,0.235,0.135,0.083,south,10.3,No
2021/03/28,07:40,0.172,0.153,0.249,0.238,0.237,0.135,0.084,south,11.5,No
2021/03/28,07:50,0.172,0.154,0.252,0.238,0.236,0.135,0.083,south,9.0,No
2021/03/28,08:00,0.173,0.153,0.250,0.237,0.236,0.135,0.084,south,9.6,No
2021/03/28,08:10,0.173,0.153,0.253,0.240,0.236,0.136,0.082,south,9.8,No
2021/03/28,08:20,0.172,0.152,0.250,0.237,0.238,0.135,0.083,south-southwest,11.1,No
2021/03/28,08:30,0.172,0.154,0.252,0.239,0.237,0.135,0.082,south,8.8,No
2021/03/28,08:40,0.171,0.154,0.252,0.238,0.236,0.135,0.083,south,10.4,No
2021/03/28,08:50,0.173,0.154,0.253,0.237,0.236,0.134,0.083,south,10.1,No
2021/03/28,09:00,0.172,0.155,0.252,0.239,0.237,0.135,0.083,south,9.8,No
2021/03/28,09:10,0.174,0.153,0.250,0.238,0.234,0.135,0.083,south,9.0,No
2021/03/28,09:20,0.172,0.154,0.252,0.238,0.237,0.134,0.083,south,10.7,No
2021/03/28,09:30,0.173,0.154,0.251,0.238,0.235,0.135,0.082,south,9.8,No
2021/03/28,09:40,0.172,0.154,0.252,0.239,0.236,0.135,0.084,south,9.8,No
2021/03/28,09:50,0.173,0.153,0.251,0.239,0.236,0.136,0.083,south,10.3,No
2021/03/28,10:00,0.171,0.155,0.252,0.239,0.236,0.135,0.083,south,10.9,No
2021/03/28,10:10,0.173,0.153,0.251,0.239,0.235,0.135,0.082,south-southeast,10.1,No
2021/03/28,10:20,0.171,0.154,0.251,0.239,0.238,0.135,0.083,south,11.8,No
2021/03/28,10:30,0.173,0.154,0.253,0.238,0.234,0.135,0.082,south,7.4,No
2021/03/28,10:40,0.172,0.154,0.252,0.238,0.236,0.135,0.083,south-southeast,6.9,No
2021/03/28,10:50,0.173,0.154,0.252,0.238,0.236,0.135,0.083,south,9.5,No
2021/03/28,11:00,0.172,0.154,0.251,0.237,0.237,0.135,0.083,south,11.1,No
2021/03/28,11:10,0.173,0.153,0.253,0.239,0.235,0.135,0.082,south,10.1,No
2021/03/28,11:20,0.170,0.153,0.251,0.237,0.237,0.135,0.083,south,11.8,No
2021/03/28,11:30,0.173,0.154,0.251,0.239,0.235,0.134,0.083,south,13.7,No
2021/03/28,11:40,0.171,0.153,0.251,0.238,0.237,0.135,0.083,south,12.6,No
2021/03/28,11:50,0.173,0.153,0.252,0.239,0.235,0.135,0.083,south,12.9,No
2021/03/28,12:00,0.173,0.154,0.252,0.238,0.236,0.136,0.083,south,10.4,No
2021/03/28,12:10,0.172,0.155,0.253,0.239,0.236,0.134,0.083,south,10.7,No
2021/03/28,12:20,0.172,0.153,0.251,0.239,0.238,0.136,0.084,south,12.2,No
2021/03/28,12:30,0.173,0.154,0.252,0.239,0.235,0.135,0.083,south,10.7,Yes
2021/03/28,12:40,0.173,0.153,0.250,0.237,0.236,0.134,0.083,south,10.7,Yes
2021/03/28,12:50,0.173,0.153,0.253,0.240,0.236,0.135,0.083,south,11.2,No
2021/03/28,13:00,0.172,0.153,0.253,0.239,0.236,0.135,0.083,south,11.8,No
2021/03/28,13:10,0.173,0.155,0.253,0.239,0.234,0.135,0.083,south,11.4,No
2021/03/28,13:20,0.171,0.154,0.251,0.237,0.236,0.136,0.082,south,12.3,No
2021/03/28,13:30,0.174,0.154,0.253,0.238,0.235,0.134,0.084,south,11.5,Yes
2021/03/28,13:40,0.172,0.153,0.252,0.239,0.236,0.136,0.083,south,10.0,Yes
2021/03/28,13:50,0.173,0.154,0.252,0.240,0.236,0.135,0.083,south,14.2,Yes
2021/03/28,14:00,0.173,0.153,0.252,0.239,0.237,0.136,0.083,south,13.6,Yes
2021/03/28,14:10,0.174,0.155,0.251,0.239,0.236,0.136,0.083,south,13.1,Yes
2021/03/28,14:20,0.173,0.155,0.254,0.240,0.238,0.136,0.083,south,9.5,Yes
2021/03/28,14:30,0.175,0.155,0.251,0.239,0.237,0.136,0.085,south,8.4,Yes
2021/03/28,14:40,0.173,0.156,0.250,0.238,0.237,0.137,0.085,south-southwest,9.6,Yes
2021/03/28,14:50,0.174,0.155,0.250,0.238,0.236,0.137,0.086,south,8.1,Yes
2021/03/28,15:00,0.174,0.156,0.249,0.237,0.236,0.138,0.087,south,6.8,Yes
2021/03/28,15:10,0.174,0.156,0.249,0.237,0.236,0.138,0.087,south,7.0,Yes
2021/03/28,15:20,0.175,0.156,0.247,0.236,0.236,0.139,0.088,south,8.2,Yes
2021/03/28,15:30,0.175,0.158,0.249,0.236,0.238,0.138,0.088,south,11.2,Yes
2021/03/28,15:40,0.176,0.157,0.250,0.238,0.237,0.138,0.089,south,10.9,Yes
2021/03/28,15:50,0.174,0.157,0.250,0.237,0.239,0.139,0.088,south,10.7,Yes
2021/03/28,16:00,0.177,0.157,0.249,0.239,0.236,0.139,0.089,south,10.1,Yes
2021/03/28,16:10,0.174,0.157,0.248,0.237,0.239,0.138,0.088,south,12.5,No
2021/03/28,16:20,0.174,0.156,0.249,0.236,0.236,0.137,0.087,south,10.1,No
2021/03/28,16:30,0.172,0.154,0.248,0.235,0.235,0.136,0.086,south,11.2,No
2021/03/28,16:40,0.170,0.153,0.246,0.234,0.235,0.136,0.085,south,11.2,No
2021/03/28,16:50,0.171,0.153,0.246,0.234,0.234,0.134,0.083,south,8.5,No
2021/03/28,17:00,0.170,0.152,0.244,0.232,0.235,0.134,0.084,south,10.6,No
2021/03/28,17:10,0.169,0.152,0.246,0.232,0.232,0.133,0.083,south,9.0,No
2021/03/28,17:20,0.169,0.151,0.244,0.231,0.234,0.133,0.083,south,8.6,No
2021/03/28,17:30,0.169,0.151,0.243,0.231,0.232,0.133,0.083,south,9.3,No
2021/03/28,17:40,0.169,0.150,0.242,0.230,0.233,0.132,0.082,south,7.8,No
2021/03/28,17:50,0.169,0.151,0.243,0.230,0.232,0.132,0.082,south-southwest,8.1,Yes
2021/03/28,18:00,0.169,0.152,0.245,0.234,0.234,0.134,0.083,south-southwest,9.0,Yes
2021/03/28,18:10,0.171,0.153,0.246,0.233,0.234,0.135,0.083,south,8.6,Yes
2021/03/28,18:20,0.171,0.154,0.245,0.235,0.237,0.137,0.086,south,8.1,Yes
2021/03/28,18:30,0.174,0.155,0.249,0.236,0.237,0.138,0.087,south-southwest,10.3,Yes
2021/03/28,18:40,0.176,0.159,0.251,0.239,0.239,0.142,0.091,south,10.7,Yes
2021/03/28,18:50,0.177,0.159,0.252,0.240,0.241,0.143,0.092,south-southwest,10.0,Yes
2021/03/28,19:00,0.180,0.160,0.251,0.240,0.241,0.145,0.093,south,10.9,Yes
2021/03/28,19:10,0.178,0.163,0.252,0.242,0.244,0.146,0.096,south,9.8,Yes
2021/03/28,19:20,0.183,0.164,0.253,0.240,0.243,0.146,0.098,south-southwest,11.1,Yes
2021/03/28,19:30,0.182,0.166,0.252,0.243,0.244,0.148,0.098,south,9.2,Yes
2021/03/28,19:40,0.183,0.165,0.254,0.243,0.244,0.148,0.099,south,9.5,Yes
2021/03/28,19:50,0.181,0.164,0.253,0.242,0.246,0.147,0.098,south,9.8,Yes
2021/03/28,20:00,0.179,0.164,0.254,0.242,0.242,0.145,0.095,south,9.0,Yes
2021/03/28,20:10,0.179,0.162,0.253,0.241,0.243,0.144,0.095,south,8.8,Yes
2021/03/28,20:20,0.179,0.162,0.253,0.241,0.242,0.142,0.094,south,8.8,Yes
2021/03/28,20:30,0.177,0.161,0.252,0.241,0.240,0.144,0.094,south,10.1,Yes
2021/03/28,20:40,0.177,0.162,0.250,0.239,0.241,0.143,0.094,south,9.6,Yes
2021/03/28,20:50,0.178,0.161,0.251,0.240,0.241,0.144,0.094,south,10.1,Yes
2021/03/28,21:00,0.176,0.160,0.250,0.239,0.243,0.142,0.095,south,10.1,Yes
2021/03/28,21:10,0.178,0.160,0.249,0.240,0.240,0.142,0.094,south-southwest,10.7,Yes
2021/03/28,21:20,0.175,0.159,0.250,0.239,0.242,0.141,0.093,south-southwest,10.1,Yes
2021/03/28,21:30,0.177,0.160,0.247,0.237,0.240,0.141,0.093,south,6.7,Yes
2021/03/28,21:40,0.175,0.158,0.250,0.238,0.241,0.141,0.092,south,8.3,Yes
2021/03/28,21:50,0.176,0.159,0.249,0.236,0.240,0.139,0.092,south-southwest,8.6,Yes
2021/03/28,22:00,0.174,0.158,0.248,0.237,0.239,0.139,0.091,south,7.5,Yes
2021/03/28,22:10,0.174,0.157,0.248,0.237,0.240,0.140,0.092,south-southwest,8.1,Yes
2021/03/28,22:20,0.173,0.158,0.248,0.237,0.239,0.139,0.091,south-southwest,8.6,Yes
2021/03/28,22:30,0.173,0.158,0.248,0.236,0.238,0.138,0.091,south-southwest,10.1,Yes
2021/03/28,22:40,0.174,0.156,0.248,0.236,0.237,0.139,0.091,south-southwest,8.1,Yes
2021/03/28,22:50,0.171,0.156,0.247,0.237,0.239,0.138,0.090,south-southwest,9.2,Yes
2021/03/28,23:00,0.173,0.156,0.248,0.235,0.237,0.138,0.091,south-southwest,8.8,Yes
2021/03/28,23:10,0.171,0.156,0.245,0.237,0.238,0.138,0.090,south,9.0,Yes
2021/03/28,23:20,0.173,0.156,0.247,0.235,0.238,0.138,0.090,south,9.6,Yes
2021/03/28,23:30,0.171,0.156,0.247,0.236,0.238,0.139,0.091,south,8.8,Yes
2021/03/28,23:40,0.172,0.155,0.247,0.236,0.237,0.137,0.089,south,9.8,Yes
2021/03/28,23:50,0.172,0.156,0.247,0.234,0.238,0.137,0.091,south,9.0,Yes
